TimeEDT,TemperatureF,Dew PointF,Humidity,Sea Level PressureIn,VisibilityMPH,Wind Direction,Wind SpeedMPH,Gust SpeedMPH,PrecipitationIn,Events,Conditions,WindDirDegrees,DateUTC
12:17 AM,71.6,69.8,94,30.19,5.0,SSW,3.5,-,N/A,,Clear,200,2013-08-21 04:17:00
12:35 AM,69.8,68.0,94,30.19,0.5,SSW,4.6,-,N/A,Fog,Fog,210,2013-08-21 04:35:00
12:55 AM,71.6,69.8,94,30.19,5.0,SSW,3.5,-,N/A,,Clear,210,2013-08-21 04:55:00
1:15 AM,69.8,68.0,94,30.19,0.2,Calm,Calm,-,N/A,Fog,Fog,0,2013-08-21 05:15:00
1:35 AM,69.8,68.0,94,30.19,5.0,South,4.6,-,N/A,,Scattered Clouds,190,2013-08-21 05:35:00
1:56 AM,69.8,68.0,94,30.19,3.0,SSW,3.5,-,N/A,,Clear,210,2013-08-21 05:56:00
2:17 AM,69.8,68.0,94,30.19,1.2,Calm,Calm,-,N/A,,Mist,0,2013-08-21 06:17:00
2:36 AM,69.8,68.0,94,30.19,5.0,SSW,4.6,-,N/A,,Clear,200,2013-08-21 06:36:00
2:55 AM,71.6,69.8,94,30.19,5.0,SSW,4.6,-,N/A,,Clear,210,2013-08-21 06:55:00
3:18 AM,71.6,69.8,94,30.19,5.0,Calm,Calm,-,N/A,,Clear,0,2013-08-21 07:18:00
3:35 AM,71.6,69.8,94,30.19,2.5,SSW,3.5,-,N/A,,Clear,210,2013-08-21 07:35:00
3:55 AM,71.6,69.8,94,30.19,2.5,SSW,4.6,-,N/A,,Clear,200,2013-08-21 07:55:00
4:15 AM,71.6,69.8,94,30.19,4.0,SSW,4.6,-,N/A,,Clear,210,2013-08-21 08:15:00
4:35 AM,71.6,69.8,94,30.19,4.0,Calm,Calm,-,N/A,,Clear,0,2013-08-21 08:35:00
4:55 AM,71.6,69.8,94,30.19,1.8,Calm,Calm,-,N/A,,Mist,0,2013-08-21 08:55:00
5:35 AM,71.6,69.8,94,30.19,1.5,Calm,Calm,-,N/A,,Mist,0,2013-08-21 09:35:00
5:59 AM,71.6,69.8,94,30.19,1.0,Calm,Calm,-,N/A,,Mist,0,2013-08-21 09:59:00
6:15 AM,69.8,68.0,94,30.20,0.5,South,3.5,-,N/A,Fog,Fog,190,2013-08-21 10:15:00
6:35 AM,71.6,69.8,94,30.20,0.2,Calm,Calm,-,N/A,Fog,Fog,0,2013-08-21 10:35:00
6:55 AM,69.8,69.8,100,30.21,0.2,Calm,Calm,-,N/A,Fog,Fog,0,2013-08-21 10:55:00
7:17 AM,71.6,69.8,94,30.21,3.0,Calm,Calm,-,N/A,,Clear,0,2013-08-21 11:17:00
7:35 AM,71.6,69.8,94,30.22,4.0,Calm,Calm,-,N/A,,Clear,0,2013-08-21 11:35:00
7:55 AM,73.4,71.6,94,30.22,4.0,Calm,Calm,-,N/A,,Clear,0,2013-08-21 11:55:00
8:15 AM,77.0,75.2,94,30.22,7.0,Calm,Calm,-,N/A,,Clear,0,2013-08-21 12:15:00
8:35 AM,78.8,75.2,89,30.23,7.0,SW,3.5,-,N/A,,Clear,230,2013-08-21 12:35:00
8:55 AM,78.8,75.2,89,30.23,10.0,SW,4.6,-,N/A,,Clear,220,2013-08-21 12:55:00
9:15 AM,78.8,75.2,89,30.23,10.0,Calm,Calm,-,N/A,,Clear,0,2013-08-21 13:15:00
9:36 AM,80.6,75.2,84,30.23,10.0,Calm,Calm,-,N/A,,Clear,0,2013-08-21 13:36:00
9:55 AM,82.4,73.4,74,30.23,10.0,Calm,Calm,-,N/A,,Clear,0,2013-08-21 13:55:00
10:15 AM,82.4,73.4,74,30.23,10.0,Calm,Calm,-,N/A,,Clear,0,2013-08-21 14:15:00
10:35 AM,84.2,73.4,70,30.23,10.0,Calm,Calm,-,N/A,,Clear,0,2013-08-21 14:35:00
10:55 AM,84.2,73.4,70,30.23,10.0,Calm,Calm,-,N/A,,Scattered Clouds,0,2013-08-21 14:55:00
11:15 AM,84.2,71.6,66,30.23,10.0,Calm,Calm,-,N/A,,Scattered Clouds,0,2013-08-21 15:15:00
11:35 AM,86.0,71.6,62,30.22,10.0,SW,3.5,-,N/A,,Clear,230,2013-08-21 15:35:00
11:55 AM,86.0,71.6,62,30.22,10.0,South,3.5,-,N/A,,Scattered Clouds,180,2013-08-21 15:55:00
12:15 PM,86.0,71.6,62,30.21,10.0,South,4.6,-,N/A,,Scattered Clouds,180,2013-08-21 16:15:00
12:35 PM,86.0,71.6,62,30.21,10.0,South,4.6,-,N/A,,Scattered Clouds,180,2013-08-21 16:35:00
12:55 PM,86.0,71.6,62,30.21,10.0,SSW,4.6,-,N/A,,Clear,200,2013-08-21 16:55:00
1:15 PM,86.0,71.6,62,30.21,10.0,South,4.6,-,N/A,,Clear,190,2013-08-21 17:15:00
1:35 PM,86.0,71.6,62,30.21,10.0,South,5.8,-,N/A,,Clear,170,2013-08-21 17:35:00
1:55 PM,84.2,71.6,66,30.21,10.0,South,6.9,-,N/A,,Clear,170,2013-08-21 17:55:00
2:15 PM,84.2,71.6,66,30.20,10.0,South,6.9,-,N/A,,Clear,190,2013-08-21 18:15:00
2:36 PM,84.2,71.6,66,30.19,10.0,South,6.9,-,N/A,,Clear,170,2013-08-21 18:36:00
2:55 PM,86.0,71.6,62,30.18,10.0,South,8.1,-,N/A,,Clear,170,2013-08-21 18:55:00
3:15 PM,87.8,73.4,62,30.17,10.0,SW,8.1,-,N/A,,Scattered Clouds,220,2013-08-21 19:15:00
3:35 PM,86.0,73.4,66,30.16,10.0,SSW,5.8,-,N/A,,Scattered Clouds,210,2013-08-21 19:35:00
3:55 PM,86.0,73.4,66,30.16,10.0,South,4.6,-,N/A,,Clear,190,2013-08-21 19:55:00
4:15 PM,84.2,71.6,66,30.15,10.0,South,6.9,-,N/A,,Clear,180,2013-08-21 20:15:00
4:35 PM,84.2,71.6,66,30.14,10.0,South,5.8,-,N/A,,Clear,180,2013-08-21 20:35:00
4:55 PM,84.2,73.4,70,30.14,10.0,South,6.9,-,N/A,,Clear,170,2013-08-21 20:55:00
5:15 PM,84.2,73.4,70,30.14,10.0,South,5.8,-,N/A,,Clear,180,2013-08-21 21:15:00
5:35 PM,84.2,71.6,66,30.14,10.0,SSE,6.9,-,N/A,,Clear,160,2013-08-21 21:35:00
5:55 PM,84.2,73.4,70,30.14,10.0,SSE,6.9,-,N/A,,Clear,160,2013-08-21 21:55:00
6:15 PM,82.4,73.4,74,30.14,10.0,SSE,4.6,-,N/A,,Clear,150,2013-08-21 22:15:00
6:35 PM,80.6,73.4,79,30.13,10.0,South,6.9,-,N/A,,Clear,180,2013-08-21 22:35:00
6:55 PM,80.6,71.6,74,30.14,10.0,South,5.8,-,N/A,,Clear,170,2013-08-21 22:55:00
7:15 PM,78.8,71.6,78,30.14,10.0,SSE,6.9,-,N/A,,Clear,160,2013-08-21 23:15:00
7:36 PM,78.8,71.6,78,30.13,10.0,SSE,5.8,-,N/A,,Clear,160,2013-08-21 23:36:00
7:55 PM,78.8,73.4,83,30.14,10.0,SSE,5.8,-,N/A,,Clear,160,2013-08-21 23:55:00
8:15 PM,78.8,73.4,83,30.13,10.0,SSE,4.6,-,N/A,,Clear,160,2013-08-22 00:15:00
8:35 PM,77.0,73.4,89,30.14,10.0,South,4.6,-,N/A,,Clear,170,2013-08-22 00:35:00
8:57 PM,77.0,73.4,89,30.13,7.0,South,5.8,-,N/A,,Clear,170,2013-08-22 00:57:00
9:16 PM,77.0,73.4,89,30.12,10.0,SSE,5.8,-,N/A,,Clear,160,2013-08-22 01:16:00
9:35 PM,77.0,73.4,89,30.14,10.0,South,4.6,-,N/A,,Clear,170,2013-08-22 01:35:00
9:56 PM,77.0,71.6,83,30.14,10.0,SSE,5.8,-,N/A,,Clear,160,2013-08-22 01:56:00
10:17 PM,77.0,71.6,83,30.15,10.0,South,5.8,-,N/A,,Clear,180,2013-08-22 02:17:00
10:35 PM,77.0,71.6,83,30.15,10.0,South,5.8,-,N/A,,Clear,180,2013-08-22 02:35:00
10:55 PM,77.0,71.6,83,30.14,10.0,South,5.8,-,N/A,,Clear,180,2013-08-22 02:55:00
11:16 PM,77.0,71.6,83,30.14,10.0,South,4.6,-,N/A,Thunderstorm,Clear,170,2013-08-22 03:16:00
11:35 PM,77.0,71.6,83,30.14,10.0,SSW,4.6,-,N/A,Thunderstorm,Clear,200,2013-08-22 03:35:00
11:55 PM,77.0,71.6,83,30.13,10.0,South,5.8,-,N/A,,Clear,190,2013-08-22 03:55:00